Location: Windsor
(43.2292°N, 89.3015°W)
Time: 09:10:48
(UTC+00:00)

Tiros 1 - Pass Details

Date: 04 June 2022
Orbit: 629 x 663 km, 48.4° (Epoch: 04 July)

Event Time Altitude Azimuth Distance (km) Brightness Sun altitude
Rises 04:23:47 0° 255° (WSW) 2,909 10.6 -21.0°
Reaches altitude 10° 04:26:07 10° 258° (WSW) 2,002 9.8 -21.2°
Maximum altitude 04:30:41 65° 341° (NNW) 694 7.5 -21.5°
Drops below altitude 10° 04:35:17 10° 63° (ENE) 2,012 9.7 -21.8°
Sets 04:37:38 0° 67° (ENE) 2,924 10.6 -21.9°
